Flag for Poland Weather past 2 weeks in Grudziądz, Poland

Now
34 °F

Overcast.


Feels Like: 31 °F
Forecast: 32 / 49 °F
Wind: 3 mph from Southeast

Location: Torun

Current Time: Oct 25, 2014 at 1:29:18 PM

Latest Report: Oct 25, 2014 at 12:00 PM


Visibility: 8 mi

Pressure: 30.30 "Hg

Humidity: 74%

Dew point: 26 °F

Location of GrudziądzLocation

Historic Weather in Grudziądz — Graph

°F

Grudziądz temperature yesterday

Maximum temperature yesterday: 44 °F (at 3:00 PM)
Minimum temperature yesterday: 31 °F (at 7:00 AM)
Average temperature yesterday: 36 °F

Past Weeks' High & Low Weather Summary

 TemperatureHumidityPressure
High71 °F (Oct 10, 4:00 PM)100% (Oct 14, 7:00 AM)30.41 "Hg (Oct 14, 7:00 AM)
Low28 °F (Oct 25, 7:00 AM)49% (Oct 24, 3:00 PM)29.50 "Hg (Oct 22, 5:00 AM)
Average52 °F86%29.94 "Hg
* Reported Oct 10 12:00 Noon — Oct 25 12:00 Noon, Grudziądz, Weather by CustomWeather, © 2014

Note: Actual official high and low records may vary slightly from our data, if they occured in-between our weather recording intervals... More about our weather records

Advertising

Grudziądz weather history for previous 24 hours

 ConditionsComfort  
Time TempWeatherWind HumidityBarometerVisibility
12:00 PM
Oct 25
34 °FOvercast.3 mph74%30.30 "Hg8 mi
11:00 AM32 °FOvercast.3 mph73%30.30 "Hg7 mi
10:00 AM31 °FOvercast.3 mph72%30.31 "Hg8 mi
9:00 AM29 °FOvercast.3 mph72%30.32 "Hg9 mi
8:00 AM28 °FPassing clouds.3 mph73%30.32 "Hg9 mi
7:00 AM28 °FPassing clouds.3 mph73%30.32 "Hg9 mi
6:00 AM29 °FClear.3 mph74%30.33 "Hg11 mi
5:00 AM29 °FClear.3 mph75%30.34 "Hg12 mi
4:00 AM29 °FClear.2 mph75%30.34 "Hg11 mi
3:00 AM31 °FClear.3 mph75%30.36 "Hg12 mi
2:00 AM32 °FClear.3 mph71%30.36 "Hg13 mi
1:00 AM33 °FClear.3 mph71%30.37 "Hg12 mi
12:00 AM33 °FClear.3 mph70%30.37 "Hg11 mi
11:00 PM
Oct 24
32 °FClear.2 mph70%30.37 "Hg8 mi
10:00 PM33 °FClear.3 mph65%30.37 "Hg9 mi
9:00 PM34 °FClear.2 mph61%30.37 "Hg6 mi
8:00 PM35 °FClear.2 mph61%30.37 "Hg6 mi
7:00 PM36 °FPassing clouds.2 mph61%30.37 "Hg6 mi
6:00 PM38 °FPassing clouds.2 mph61%30.36 "Hg6 mi
5:00 PM41 °FScattered clouds.5 mph53%30.36 "Hg14 mi
4:00 PM43 °FScattered clouds.3 mph51%30.36 "Hg17 mi
3:00 PM44 °FPassing clouds.3 mph49%30.36 "Hg22 mi
2:00 PM43 °FPassing clouds.3 mph50%30.37 "Hg12 mi
1:00 PM42 °FPassing clouds.2 mph53%30.38 "Hg19 mi
Weather by CustomWeather, © 2014

See weather overviewHow to use our weather pages